DW2659 Weather Reports


time (UTC)temp
F
wind
direction
speed
knots
gust
knots
rain 1hr
in
rain 24hr
in
rain mn
in
humidity
%
barometer
mb
20260508030403 55 243 0.0 0.9 0.00 1.15 0.96 81 1014.8
20260508025904 55 243 0.0 0.9 0.00 1.15 0.96 81 1014.8
20260508024903 55 243 0.9 1.7 0.00 1.15 0.96 80 1014.8
20260508024405 55 243 0.9 2.6 0.00 1.16 0.96 81 1014.6
20260508023403 55 221 0.0 0.9 0.00 1.16 0.96 82 1014.6
20260508022904 55 221 0.9 1.7 0.00 1.16 0.96 82 1014.6
20260508022403 55 221 0.0 0.9 0.00 1.16 0.96 82 1014.6
20260508021903 55 221 0.0 0.9 0.00 1.16 0.96 81 1014.6
20260508020903 55 221 0.0 0.9 0.00 1.16 0.96 81 1014.6
20260508020403 56 221 0.0 0.0 0.00 1.16 0.96 81 1014.5
20260508015904 56 221 0.0 0.0 0.00 1.16 0.96 81 1014.5
20260508015403 56 221 0.0 0.9 0.00 1.16 0.96 81 1014.4
20260508014903 56 221 0.0 0.9 0.00 1.16 0.96 81 1014.4
20260508014404 56 221 0.0 0.0 0.00 1.16 0.96 81 1014.2
20260508013403 57 221 0.0 1.7 0.00 1.16 0.96 80 1014.0
20260508012905 57 214 0.9 2.6 0.00 1.16 0.96 80 1013.9
20260508011903 57 294 0.0 1.7 0.00 1.16 0.96 80 1013.9
20260508011404 57 294 0.0 0.9 0.00 1.16 0.96 79 1013.7
20260508010903 58 294 0.0 0.9 0.00 1.16 0.96 78 1013.7
20260508010403 58 294 0.0 0.0 0.00 1.16 0.96 79 1013.7
20260508005904 58 294 0.0 0.0 0.00 1.16 0.96 79 1013.5
20260508005403 58 294 0.0 0.0 0.00 1.16 0.96 79 1013.5
20260508004903 59 294 0.0 0.0 0.00 1.16 0.96 79 1013.5
20260508004404 59 294 0.0 0.0 0.00 1.16 0.96 79 1013.5
20260508003903 59 294 0.0 0.9 0.00 1.16 0.96 79 1013.5
20260508003403 59 294 0.0 0.9 0.00 1.16 0.96 79 1013.4
20260508002403 60 317 0.0 0.9 0.00 1.16 0.96 79 1013.4
20260508001404 60 317 0.9 1.7 0.00 1.17 0.96 79 1013.2
20260508000404 61 5 0.9 1.7 0.00 1.27 0.96 78 1013.2
20260507235404 62 5 0.0 0.9 0.00 1.28 0.96 76 1013.0
20260507234903 62 5 0.0 0.9 0.00 1.28 0.96 75 1012.9
20260507234404 62 5 0.0 0.0 0.00 1.28 0.96 75 1012.9
20260507233903 63 5 0.0 0.0 0.00 1.28 0.96 74 1012.9
20260507232905 64 5 0.0 0.0 0.00 1.28 0.96 73 1012.9
20260507232403 64 5 0.0 0.9 0.00 1.28 0.96 72 1012.9
20260507231903 65 5 0.0 0.9 0.00 1.28 0.96 71 1012.9
20260507231404 65 5 0.0 0.9 0.00 1.29 0.96 70 1012.8
20260507230903 66 5 0.9 1.7 0.00 1.30 0.96 70 1012.8
20260507225403 66 113 0.0 0.9 0.00 1.42 0.96 67 1012.7
20260507224904 66 113 0.0 0.9 0.00 1.43 0.96 66 1012.7
20260507224404 66 113 0.0 0.9 0.00 1.44 0.96 65 1012.7
20260507223904 67 113 0.0 1.7 0.00 1.49 0.96 64 1012.7
20260507223404 67 22 0.9 1.7 0.00 1.52 0.96 66 1012.7
20260507222904 67 23 0.9 1.7 0.00 1.53 0.96 66 1012.7
20260507221403 67 156 0.0 1.7 0.00 1.56 0.96 66 1012.8
20260507220904 67 73 0.9 1.7 0.00 1.57 0.96 65 1012.8
20260507220404 67 146 0.0 2.6 0.00 1.57 0.96 64 1012.8
20260507215904 67 101 0.9 2.6 0.00 1.58 0.96 66 1012.7
20260507215405 67 72 0.9 4.3 0.00 1.58 0.96 66 1012.7
20260507214903 67 306 0.0 0.9 0.00 1.58 0.96 70 1012.7
20260507214404 67 306 0.0 0.0 0.00 1.58 0.96 69 1012.7
20260507213904 66 306 0.0 0.9 0.00 1.58 0.96 67 1012.7
20260507212905 67 36 0.0 0.9 0.00 1.58 0.96 66 1012.7
20260507211903 68 44 0.9 2.6 0.00 1.58 0.96 64 1012.5
20260507211403 67 11 0.0 0.9 0.00 1.58 0.96 64 1012.4
20260507210904 67 11 0.0 0.9 0.00 1.58 0.96 64 1012.4
20260507210404 67 11 0.0 1.7 0.00 1.58 0.96 65 1012.4
20260507205904 67 11 0.9 1.7 0.00 1.58 0.96 65 1012.4
20260507204904 67 28 0.9 2.6 0.00 1.58 0.96 63 1012.4
20260507204403 67 64 1.7 2.6 0.00 1.58 0.96 64 1012.1
20260507203905 67 42 1.7 2.6 0.00 1.59 0.96 64 1012.1
20260507203403 68 33 1.7 2.6 0.00 1.60 0.96 61 1012.1
20260507202903 68 35 0.9 2.6 0.00 1.65 0.96 62 1012.2
20260507202404 67 78 1.7 2.6 0.00 1.65 0.96 66 1012.2
20260507201904 66 68 0.9 2.6 0.00 1.65 0.96 62 1012.2
20260507201403 66 78 0.9 2.6 0.00 1.65 0.96 65 1012.4
20260507200905 66 9 0.9 1.7 0.00 1.68 0.96 66 1012.4
20260507200403 65 61 0.9 1.7 0.00 1.68 0.96 66 1012.4
20260507195904 66 61 0.9 1.7 0.00 1.69 0.96 66 1012.7
20260507195403 66 61 0.0 0.9 0.00 1.69 0.96 66 1012.7
20260507193903 66 11 0.9 1.7 0.00 1.75 0.96 66 1012.7
20260507192904 67 12 0.9 1.7 0.00 2.17 0.96 61 1012.9
20260507191905 68 27 0.9 2.6 0.00 2.18 0.96 61 1012.9
20260507191403 68 12 0.9 2.6 0.00 2.18 0.96 60 1012.9
20260507190904 68 50 2.6 4.3 0.00 2.18 0.96 63 1012.9
20260507190405 68 15 0.9 2.6 0.00 2.18 0.96 64 1012.9
20260507185904 67 26 1.7 5.2 0.00 2.18 0.96 62 1012.9
20260507185403 67 13 0.9 4.3 0.00 2.18 0.96 66 1012.9
20260507184905 67 9 1.7 2.6 0.00 2.18 0.96 65 1012.9
20260507184403 67 276 1.7 2.6 0.00 2.18 0.96 68 1012.9
20260507183904 66 43 1.7 2.6 0.00 2.18 0.96 68 1012.9
20260507183405 66 355 0.9 2.6 0.00 2.18 0.96 65 1012.9
20260507182903 65 0 1.7 2.6 0.00 2.18 0.96 69 1012.9
20260507182403 65 3 1.7 2.6 0.00 2.18 0.96 68 1012.9
20260507181905 64 40 0.9 2.6 0.00 2.18 0.96 69 1012.9
20260507181403 64 56 0.9 2.6 0.00 2.18 0.96 70 1012.9
20260507180904 64 38 0.9 2.6 0.00 2.18 0.96 70 1012.9
20260507180405 65 43 1.7 2.6 0.00 2.18 0.96 67 1012.9
20260507175903 66 62 1.7 2.6 0.00 2.18 0.96 69 1013.2
20260507175404 65 34 1.7 2.6 0.00 2.18 0.96 69 1013.4
20260507174905 65 57 1.7 2.6 0.00 2.18 0.96 72 1013.4
20260507174403 65 41 0.9 2.6 0.00 2.18 0.96 70 1013.4
20260507173904 64 45 0.9 4.3 0.00 2.18 0.96 74 1013.4
20260507173405 63 53 1.7 2.6 0.00 2.18 0.96 73 1013.4
20260507172903 64 22 1.7 2.6 0.00 2.18 0.96 73 1013.5
20260507171905 64 127 0.0 2.6 0.00 2.18 0.96 71 1013.5
20260507171403 63 12 1.7 2.6 0.00 2.18 0.96 72 1013.3
20260507170903 64 12 1.7 4.3 0.00 2.18 0.96 73 1013.3
20260507170403 64 0 1.7 2.6 0.00 2.18 0.96 73 1013.3
20260507165905 64 39 1.7 2.6 0.00 2.18 0.96 75 1013.2
20260507165404 63 34 0.9 2.6 0.00 2.18 0.96 78 1013.2
20260507164903 62 18 0.9 1.7 0.00 2.18 0.96 75 1013.5
20260507164405 61 25 0.9 2.6 0.00 2.18 0.96 77 1013.5
20260507163904 61 43 1.7 2.6 0.00 2.18 0.96 77 1013.5
20260507162905 60 68 1.7 2.6 0.00 2.18 0.96 79 1013.4
20260507162404 60 82 0.9 2.6 0.00 2.18 0.96 80 1013.4
20260507161903 59 2 0.9 2.6 0.00 2.18 0.96 80 1013.4
20260507161404 58 19 1.7 4.3 0.00 2.18 0.96 80 1013.8
20260507160904 58 18 0.9 4.3 0.00 2.18 0.96 81 1013.8
20260507160404 58 36 0.9 2.6 0.00 2.18 0.96 81 1013.8
20260507155904 58 289 1.7 2.6 0.00 2.18 0.96 81 1013.5
20260507155403 58 23 1.7 5.2 0.00 2.18 0.96 80 1013.5
20260507154904 59 357 1.7 4.3 0.00 2.18 0.96 80 1013.5
20260507154403 59 5 0.9 2.6 0.00 2.18 0.96 81 1013.0
20260507153905 59 10 0.9 2.6 0.00 2.18 0.96 81 1013.0
20260507153404 60 9 0.9 1.7 0.00 2.18 0.96 81 1013.0
20260507152903 60 4 1.7 2.6 0.00 2.18 0.96 81 1012.8
20260507151904 60 28 0.9 2.6 0.00 2.18 0.96 82 1012.8
20260507151404 60 11 0.9 1.7 0.00 2.18 0.96 83 1012.5
20260507150904 60 51 0.9 1.7 0.00 2.18 0.96 83 1012.5
20260507150404 60 9 0.9 2.6 0.00 2.19 0.96 83 1012.5
20260507145906 60 5 0.9 2.6 0.00 2.22 0.96 85 1012.5
20260507145405 60 344 0.9 2.6 0.00 2.23 0.96 85 1012.5
20260507144903 60 25 0.9 2.6 0.00 2.25 0.96 87 1012.8
20260507144404 59 352 0.9 2.6 0.00 2.26 0.96 87 1012.8
20260507143905 59 5 1.7 2.6 0.00 2.27 0.96 87 1012.8
20260507143404 59 54 0.9 2.6 0.00 2.28 0.96 88 1012.8
20260507142904 59 3 0.9 2.6 0.00 2.30 0.96 88 1012.8
20260507142403 59 9 0.9 1.7 0.00 2.31 0.96 89 1012.8
20260507141904 58 14 0.9 2.6 0.00 2.31 0.96 89 1012.8
20260507141404 58 19 0.9 2.6 0.00 2.31 0.96 89 1012.8
20260507140904 57 5 0.9 1.7 0.00 2.32 0.96 89 1012.8
20260507140406 57 5 0.9 2.6 0.00 2.32 0.96 88 1012.8
20260507135903 57 357 0.9 2.6 0.00 2.32 0.96 88 1012.6
20260507135403 57 41 0.9 2.6 0.00 2.32 0.96 88 1012.6
20260507134904 57 5 0.9 1.7 0.00 2.32 0.96 88 1012.6
20260507134405 57 19 0.9 1.7 0.00 2.32 0.96 88 1012.6
20260507133904 57 341 0.9 2.6 0.00 2.34 0.96 88 1012.6
20260507133404 57 34 0.9 1.7 0.00 2.34 0.96 88 1012.6
20260507132905 57 1 0.9 2.6 0.00 2.34 0.96 88 1012.3
20260507132404 57 353 0.9 2.6 0.00 2.35 0.96 88 1012.3
20260507131905 57 338 0.9 1.7 0.00 2.35 0.96 88 1012.3
20260507131404 57 353 0.9 1.7 0.00 2.35 0.96 88 1012.3
20260507130904 58 13 0.9 2.6 0.00 2.35 0.96 88 1011.9
20260507130404 58 338 0.9 1.7 0.00 2.35 0.96 89 1011.9
20260507125905 58 333 0.9 2.6 0.00 2.35 0.96 88 1011.4
20260507125404 58 359 0.9 2.6 0.01 2.35 0.96 89 1011.4
20260507124904 58 329 0.9 1.7 0.01 2.35 0.96 89 1011.4
20260507124405 58 323 0.0 1.7 0.01 2.35 0.96 88 1011.2
20260507123904 58 351 0.9 2.6 0.02 2.35 0.96 88 1011.2
20260507123404 58 11 0.9 2.6 0.02 2.35 0.96 89 1011.2
20260507122905 58 0 0.0 1.7 0.02 2.35 0.96 89 1011.3
20260507121904 58 7 0.9 1.7 0.02 2.35 0.96 89 1011.3
20260507121405 58 9 0.9 2.6 0.02 2.35 0.96 89 1011.3
20260507115905 58 337 0.9 1.7 0.07 2.35 0.96 88 1011.7
20260507115403 58 355 0.9 1.7 0.08 2.34 0.95 88 1011.7
20260507114904 59 32 0.9 1.7 0.09 2.34 0.95 88 1011.7
20260507114405 59 333 0.9 2.6 0.09 2.34 0.95 88 1011.7
20260507113404 59 346 0.0 0.9 0.09 2.33 0.94 89 1010.8
20260507112904 59 15 0.0 1.7 0.11 2.33 0.94 89 1010.8
20260507112405 59 21 0.9 1.7 0.12 2.33 0.94 88 1010.8
20260507111904 60 42 0.9 2.6 0.14 2.33 0.94 88 1010.8
20260507111404 60 22 0.9 1.7 0.15 2.33 0.94 89 1010.8
20260507110904 60 34 0.0 0.9 0.14 2.32 0.93 89 1010.8
20260507105906 60 34 0.9 1.7 0.11 2.28 0.89 88 1011.0
20260507104905 61 34 0.9 1.7 0.09 2.25 0.86 89 1011.0
20260507104404 61 34 0.9 1.7 0.10 2.25 0.86 89 1010.3
20260507103904 61 34 0.0 1.7 0.11 2.24 0.85 89 1010.3
20260507103404 61 50 0.9 1.7 0.13 2.24 0.85 89 1010.3
20260507102905 61 50 0.0 0.9 0.17 2.22 0.83 89 1010.3
20260507102404 61 50 0.0 1.7 0.18 2.21 0.82 89 1010.3
20260507101904 61 59 0.0 1.7 0.16 2.19 0.80 89 1010.3
20260507101405 62 315 0.0 1.7 0.15 2.18 0.79 89 1010.3
20260507100904 62 278 0.0 0.9 0.15 2.18 0.79 89 1010.3
20260507100404 62 278 0.0 0.9 0.15 2.18 0.79 89 1010.3
20260507095905 62 278 0.0 0.9 0.14 2.17 0.78 89 1010.4
20260507095404 62 267 0.0 0.9 0.14 2.16 0.77 89 1010.4
20260507094904 62 267 0.9 1.7 0.16 2.16 0.77 89 1010.4
20260507094405 62 267 0.0 1.7 0.16 2.15 0.76 89 1011.7
20260507093904 62 327 0.9 1.7 0.14 2.13 0.74 89 1011.7
20260507093404 62 260 0.9 2.6 0.12 2.11 0.72 89 1011.7
20260507092905 62 48 0.9 2.6 0.06 2.05 0.66 89 1010.3
20260507092404 62 258 1.7 4.3 0.04 2.03 0.64 89 1010.3
20260507091905 62 355 0.0 0.9 0.04 2.03 0.64 89 1010.3
20260507091405 62 355 0.0 0.9 0.04 2.03 0.64 89 1010.3
20260507090904 62 355 0.9 0.9 0.04 2.03 0.64 89 1010.3
20260507090405 62 355 0.9 1.7 0.04 2.03 0.64 89 1010.3
20260507085905 62 326 0.9 1.7 0.05 2.03 0.64 89 1010.0
20260507085404 62 327 0.9 2.6 0.05 2.02 0.63 89 1010.0
20260507083904 62 81 0.0 0.9 0.02 1.99 0.60 89 1010.0
20260507082903 62 98 0.0 0.9 0.02 1.99 0.60 89 1010.8
20260507082403 62 98 0.0 2.6 0.02 1.99 0.60 89 1010.8
20260507081903 62 122 0.9 2.6 0.02 1.99 0.60 89 1010.8
20260507080904 62 167 0.0 0.9 0.02 1.99 0.60 89 1010.6
20260507080403 62 167 0.0 0.9 0.02 1.99 0.60 89 1010.2
20260507075902 62 173 0.0 0.9 0.01 1.98 0.59 89 1010.8
20260507075403 62 211 0.9 1.7 0.00 1.97 0.58 89 1010.8
20260507074904 62 211 0.0 0.9 0.00 1.97 0.58 89 1010.8
20260507074402 62 211 0.0 1.7 0.01 1.97 0.58 89 1010.2
20260507073404 62 211 0.0 0.0 0.01 1.97 0.58 89 1010.2
20260507072402 62 211 0.0 0.0 0.01 1.97 0.58 89 1010.6
20260507071403 62 211 0.0 0.0 0.01 1.97 0.58 89 1010.6
20260507070404 62 211 0.0 0.0 0.01 1.97 0.58 89 1010.6
20260507065902 62 211 0.0 0.0 0.01 1.97 0.58 89 1011.0
20260507065403 62 211 0.0 0.9 0.01 1.97 0.58 89 1011.0
20260507064903 62 211 0.0 0.9 0.03 1.97 0.58 89 1011.0
20260507064403 63 211 0.0 0.0 0.18 1.96 0.57 89 1011.0
20260507063902 63 211 0.9 1.7 0.22 1.96 0.57 89 1011.0
20260507063403 63 211 0.0 0.9 0.22 1.96 0.57 89 1011.0
20260507062903 63 211 0.0 0.9 0.22 1.96 0.57 88 1011.4
20260507062403 63 210 0.9 1.7 0.22 1.96 0.57 88 1011.1
20260507060903 63 271 0.0 0.9 0.35 1.96 0.57 89 1011.5
20260507060404 63 271 0.0 1.7 0.36 1.96 0.57 88 1011.5
20260507055902 63 244 1.7 4.3 0.36 1.96 0.57 88 1011.8
20260507055403 63 204 0.9 1.7 0.36 1.96 0.57 88 1012.4
20260507054904 63 95 0.9 7.0 0.34 1.94 0.55 88 1012.4
20260507054402 63 222 3.5 6.1 0.20 1.78 0.39 88 1011.0
20260507053903 63 250 1.7 4.3 0.20 1.74 0.35 88 1011.0
20260507053404 63 153 1.7 7.0 0.25 1.74 0.35 89 1011.0
20260507052902 63 142 1.7 2.6 0.25 1.74 0.35 89 1011.5
20260507052403 63 176 1.7 4.3 0.25 1.74 0.35 89 1011.5
20260507051904 63 237 3.5 5.2 0.24 1.73 0.34 89 1011.5
20260507051403 63 149 1.7 5.2 0.13 1.62 0.23 89 1011.5
20260507050902 63 260 2.6 5.2 0.12 1.61 0.22 89 1011.5
20260507050404 63 136 0.9 1.7 0.12 1.60 0.21 89 1011.5
20260507045902 63 124 0.0 0.9 0.23 1.60 0.21 89 1012.4
20260507045403 63 124 0.0 0.9 0.28 1.60 0.21 89 1012.4
20260507044403 63 147 0.0 0.9 0.34 1.58 0.19 89 1012.3
20260507043902 63 146 0.0 1.7 0.33 1.54 0.15 89 1012.4
20260507043404 63 251 0.9 1.7 0.29 1.49 0.10 89 1012.4
20260507042903 63 220 0.0 0.0 0.29 1.49 0.10 89 1011.8
20260507042403 63 220 0.0 1.7 0.29 1.49 0.10 89 1011.8
20260507041903 63 220 0.9 0.9 0.29 1.49 0.10 89 1011.8
20260507041403 63 220 0.0 0.9 0.29 1.49 0.10 88 1012.5
20260507040903 64 198 0.9 1.7 0.29 1.49 0.10 88 1012.5
20260507040404 64 267 0.0 1.7 0.28 1.48 0.09 89 1012.5
20260507035903 64 220 0.9 1.7 0.19 1.39 1.39 88 1012.5
20260507035403 63 175 0.9 1.7 0.13 1.33 1.33 89 1012.5
20260507034903 64 256 0.0 1.7 0.12 1.32 1.32 89 1012.5
20260507034404 64 256 0.0 0.9 0.06 1.25 1.25 89 1012.5
20260507033903 64 256 0.9 1.7 0.03 1.22 1.22 89 1012.5
20260507033404 63 126 0.0 0.9 0.01 1.20 1.20 89 1012.5
20260507032403 63 126 0.0 1.7 0.01 1.20 1.20 89 1012.2
20260507031904 64 93 0.0 0.9 0.01 1.20 1.20 89 1012.2
20260507031402 64 93 0.0 0.9 0.01 1.20 1.20 89 1012.6